Location: Bougoura
(13.1861°N, 5.0773°W)
Time: 16:38:07
(UTC+00:00)

NOSS 3-4 (C) - Pass Details

Date: 18 September 2020
Orbit: 886 x 1326 km, 63.4° (Epoch: 22 October)

Event Time Altitude Azimuth Distance (km) Brightness Sun altitude
Rises 20:30:59 0° 217° (SW) 3,540 6.8 -32.8°
Reaches altitude 10° 20:33:37 10° 223° (SW) 2,569 6.0 -33.4°
Maximum altitude 20:39:14 46° 296° (WNW) 1,168 4.1 -34.8°
Enters shadow 20:39:16 46° 297° (WNW) 1,168 4.1 -34.8°
